PFKT

Details ICAO PFKT (KTS)
Name Brevig Mission
Region USA (Alaska)
Timezone America/Nome (UTC-8.0)
Plans Departing 1
Arriving 1
Stats Elevation 3 ft / 1 m (AMSL)
Location 65.331802° -166.470272°
Runways 3
Magnetic Variation 9.418° E
Sunrise 2018-05-24 13:04:12 UTC / 2018-05-24 05:04:12 Local
Sunset 2018-05-25 09:04:12 UTC / 2018-05-25 01:04:12 Local
Advertisement - Login to hide

Runways

ID Width Length Bearing (true) Bearing (mag) Surface Threshold Offset Overrun Length
04 75 ft / 23 m 2,104 ft / 641 m 54.64° 45.22° Gravel 0 ft / 0 m 0 ft / 0 m
10 25 ft / 8 m 1,001 ft / 305 m 117.00° 107.58° Gravel 0 ft / 0 m 0 ft / 0 m
11 98 ft / 30 m 2,980 ft / 908 m 129.70° 120.28° Gravel 0 ft / 0 m 0 ft / 0 m
22 75 ft / 23 m 2,104 ft / 641 m 234.65° 225.23° Gravel 0 ft / 0 m 0 ft / 0 m
28 25 ft / 8 m 1,001 ft / 305 m 297.00° 287.58° Gravel 0 ft / 0 m 0 ft / 0 m
29 98 ft / 30 m 2,980 ft / 908 m 309.72° 300.30° Gravel 0 ft / 0 m 0 ft / 0 m

Map

Weather


0- 5 10 15 20 25 30 35+ Temperature / ° C

Clouds and Precipitation
Forecast for 2018-05-25 12:00 UTC. Updated an hour ago

Ground ~20,000 ft ~40,000 ft Winds

METAR

PFKT 251031Z AUTO 23006KT 10SM BKN011 BKN039 01/M02 A2987 RMK AO2 FZRANO

TAF

Not found

Frequencies

Unicom 123.00 MHz CTAF
Warning: Do not use this data for real-world aviation or navigation. No guarantee of current accuracy is given.